CWOP Weather Reports


time (UTC)temp
C
wind
direction
speed
KPH
gust
KPH
rain 1hr
cm
rain 24hr
cm
rain mn
cm
humidity
%
barometer
mb
20260504050508 4 50 0.0 0.0 0.00 0.00 0.00 84 1019.2
20260504050022 4 50 0.0 1.6 0.00 0.00 0.00 85 1019.2
20260504045509 4 50 0.0 1.6 0.00 0.00 0.00 84 1019.1
20260504045014 4 50 0.0 0.0 0.00 0.00 0.00 84 1019.1
20260504044525 4 50 0.0 0.0 0.00 0.00 0.00 83 1019.1
20260504044009 4 50 0.0 3.2 0.00 0.00 0.00 83 1019.1
20260504043507 4 50 0.0 3.2 0.00 0.00 0.00 82 1019.0
20260504043020 5 50 0.0 3.2 0.00 0.00 0.00 82 1018.9
20260504042509 5 50 0.0 3.2 0.00 0.00 0.00 81 1018.9
20260504042001 5 50 0.0 0.0 0.00 0.00 0.00 80 1018.9
20260504041505 5 50 0.0 1.6 0.00 0.00 0.00 80 1018.9
20260504041005 5 50 0.0 1.6 0.00 0.00 0.00 80 1018.8
20260504040505 5 50 0.0 1.6 0.00 0.00 0.00 79 1018.8
20260504040011 6 50 0.0 3.2 0.00 0.00 0.00 77 1018.8
20260504035507 6 50 0.0 3.2 0.00 0.00 0.00 76 1018.7
20260504035007 6 50 1.6 3.2 0.00 0.00 0.00 75 1018.6
20260504034522 6 63 1.6 4.8 0.00 0.00 0.00 74 1018.5
20260504034003 6 92 3.2 6.4 0.00 0.00 0.00 73 1018.4
20260504033504 7 99 3.2 6.4 0.00 0.00 0.00 73 1018.5
20260504033012 6 101 4.8 6.4 0.00 0.00 0.00 73 1018.5
20260504032503 6 85 1.6 4.8 0.00 0.00 0.00 74 1018.6
20260504032004 6 121 3.2 4.8 0.00 0.00 0.00 74 1018.6
20260504031516 7 113 1.6 3.2 0.00 0.00 0.00 73 1018.6
20260504031007 6 71 1.6 3.2 0.00 0.00 0.00 73 1018.6
20260504030510 6 98 1.6 3.2 0.00 0.00 0.00 73 1018.6
20260504030003 6 145 0.0 4.8 0.00 0.00 0.00 73 1018.6
20260504025502 6 103 0.0 4.8 0.00 0.00 0.00 74 1018.6
20260504025004 6 115 1.6 4.8 0.00 0.00 0.00 74 1018.6
20260504024512 6 109 0.0 4.8 0.00 0.00 0.00 73 1018.7
20260504024006 6 109 0.0 4.8 0.00 0.00 0.00 73 1018.7
20260504023506 7 109 0.0 3.2 0.00 0.00 0.00 73 1018.7
20260504023019 7 109 0.0 3.2 0.00 0.00 0.00 72 1018.7
20260504022508 7 109 1.6 3.2 0.00 0.00 0.00 71 1018.7
20260504022004 7 109 0.0 3.2 0.00 0.00 0.00 70 1018.6
20260504021509 7 109 0.0 3.2 0.00 0.00 0.00 69 1018.5
20260504021003 8 111 1.6 3.2 0.00 0.00 0.00 69 1018.3
20260504020504 8 116 0.0 3.2 0.00 0.00 0.00 68 1018.3
20260504020020 8 116 0.0 3.2 0.00 0.00 0.00 67 1018.3
20260504015507 8 116 0.0 0.0 0.00 0.00 0.00 66 1018.2
20260504015006 8 116 0.0 0.0 0.00 0.00 0.00 66 1018.1
20260504014522 8 116 0.0 3.2 0.00 0.00 0.00 66 1018.1
20260504014002 8 116 0.0 3.2 0.00 0.00 0.00 65 1018.2
20260504013505 8 115 0.0 3.2 0.00 0.00 0.00 64 1018.2
20260504013011 9 107 1.6 3.2 0.00 0.00 0.00 63 1018.1
20260504012506 10 92 1.6 3.2 0.00 0.00 0.00 60 1018.1
20260504012007 10 102 0.0 3.2 0.00 0.00 0.00 59 1018.1
20260504011519 11 102 1.6 3.2 0.00 0.00 0.00 55 1018.0
20260504011007 11 81 0.0 3.2 0.00 0.00 0.00 53 1018.0
20260504010514 12 321 0.0 3.2 0.00 0.00 0.00 50 1017.9
20260504010004 12 312 0.0 3.2 0.00 0.00 0.00 46 1017.7
20260504005504 12 321 0.0 3.2 0.00 0.00 0.00 46 1017.7
20260504005003 12 321 0.0 3.2 0.00 0.00 0.00 45 1017.6
20260504004532 12 308 1.6 3.2 0.00 0.00 0.00 45 1017.5
20260504004006 13 298 0.0 3.2 0.00 0.00 0.00 46 1017.4
20260504003507 13 292 0.0 3.2 0.00 0.00 0.00 44 1017.4
20260504003019 13 302 0.0 3.2 0.00 0.00 0.00 43 1017.4
20260504002507 14 302 0.0 3.2 0.00 0.00 0.00 42 1017.4
20260504002002 14 302 1.6 3.2 0.00 0.00 0.00 41 1017.3
20260504001523 15 208 1.6 3.2 0.00 0.00 0.00 39 1017.4
20260504001003 15 208 0.0 4.8 0.00 0.00 0.00 40 1017.3
20260504000509 15 274 1.6 4.8 0.00 0.00 0.00 39 1017.3
20260504000016 15 317 1.6 4.8 0.00 0.00 0.00 38 1017.3
20260503235506 15 128 0.0 6.4 0.00 0.00 0.00 39 1017.4
20260503235007 15 284 1.6 8.0 0.00 0.00 0.00 39 1017.3
20260503234527 16 251 1.6 12.9 0.00 0.00 0.00 39 1017.3
20260503234003 16 271 6.4 12.9 0.00 0.00 0.00 38 1017.3
20260503233504 16 284 1.6 8.0 0.00 0.00 0.00 40 1017.3
20260503233013 17 289 1.6 8.0 0.00 0.00 0.00 39 1017.2
20260503232507 17 261 3.2 11.3 0.00 0.00 0.00 39 1017.2
20260503232007 17 250 3.2 11.3 0.00 0.00 0.00 39 1017.2
20260503231522 17 340 3.2 11.3 0.00 0.00 0.00 39 1017.2
20260503231008 17 300 3.2 16.1 0.00 0.00 0.00 39 1017.1
20260503230508 17 315 3.2 16.1 0.00 0.00 0.00 38 1017.1
20260503230008 17 267 6.4 14.5 0.00 0.00 0.00 37 1017.1
20260503225503 17 270 3.2 14.5 0.00 0.00 0.00 37 1017.1
20260503225006 17 225 4.8 12.9 0.00 0.00 0.00 36 1017.1
20260503224513 17 257 1.6 12.9 0.00 0.00 0.00 39 1017.1
20260503224008 18 252 6.4 12.9 0.00 0.00 0.00 36 1017.1
20260503223508 18 316 4.8 11.3 0.00 0.00 0.00 38 1017.1
20260503223023 18 237 4.8 11.3 0.00 0.00 0.00 36 1017.1
20260503222507 18 350 4.8 11.3 0.00 0.00 0.00 36 1017.1
20260503222003 18 5 6.4 11.3 0.00 0.00 0.00 36 1017.1
20260503221510 18 209 4.8 14.5 0.00 0.00 0.00 36 1017.1
20260503221009 18 264 4.8 14.5 0.00 0.00 0.00 35 1017.1
20260503220510 19 286 4.8 9.7 0.00 0.00 0.00 37 1017.1
20260503220029 19 239 1.6 12.9 0.00 0.00 0.00 36 1017.2
20260503215507 19 275 1.6 12.9 0.00 0.00 0.00 36 1017.2
20260503215012 19 212 4.8 14.5 0.00 0.00 0.00 36 1017.2
20260503214536 18 304 6.4 14.5 0.00 0.00 0.00 34 1017.2
20260503214003 19 288 4.8 14.5 0.00 0.00 0.00 33 1017.3
20260503213506 19 328 4.8 14.5 0.00 0.00 0.00 35 1017.2
20260503213027 19 318 6.4 12.9 0.00 0.00 0.00 34 1017.2
20260503212507 19 5 3.2 9.7 0.00 0.00 0.00 35 1017.2
20260503212015 19 53 1.6 11.3 0.00 0.00 0.00 30 1017.3
20260503211523 19 263 1.6 11.3 0.00 0.00 0.00 33 1017.4
20260503211013 19 317 3.2 11.3 0.00 0.00 0.00 35 1017.4
20260503210510 19 290 3.2 11.3 0.00 0.00 0.00 33 1017.5
20260503210014 19 278 3.2 11.3 0.00 0.00 0.00 34 1017.5
20260503205509 19 254 1.6 11.3 0.00 0.00 0.00 34 1017.6
20260503205007 19 28 3.2 12.9 0.00 0.00 0.00 35 1017.6
20260503204525 19 240 6.4 12.9 0.00 0.00 0.00 34 1017.7
20260503204010 18 175 1.6 12.9 0.00 0.00 0.00 32 1017.8
20260503203511 18 5 4.8 9.7 0.00 0.00 0.00 33 1017.8
20260503203025 18 317 4.8 9.7 0.00 0.00 0.00 33 1018.0
20260503202518 18 338 3.2 11.3 0.00 0.00 0.00 37 1018.0
20260503202006 18 293 3.2 11.3 0.00 0.00 0.00 33 1018.1
20260503201514 18 277 4.8 11.3 0.00 0.00 0.00 33 1018.2
20260503201009 18 82 4.8 9.7 0.00 0.00 0.00 31 1018.2
20260503200510 18 10 1.6 14.5 0.00 0.00 0.00 37 1018.3
20260503200023 18 210 3.2 14.5 0.00 0.00 0.00 33 1018.4
20260503195508 18 211 8.0 14.5 0.00 0.00 0.00 36 1018.5
20260503195012 18 215 6.4 17.7 0.00 0.00 0.00 34 1018.6
20260503194529 18 296 1.6 17.7 0.00 0.00 0.00 33 1018.6
20260503194006 18 227 4.8 14.5 0.00 0.00 0.00 34 1018.7
20260503193506 18 245 6.4 17.7 0.00 0.00 0.00 34 1018.8
20260503193017 17 230 3.2 17.7 0.00 0.00 0.00 32 1018.9
20260503192508 17 346 4.8 17.7 0.00 0.00 0.00 32 1018.9
20260503192007 17 226 9.7 17.7 0.00 0.00 0.00 34 1019.1
20260503191524 17 202 9.7 20.9 0.00 0.00 0.00 38 1019.1
20260503191009 17 213 4.8 20.9 0.00 0.00 0.00 37 1019.1
20260503190507 17 146 6.4 17.7 0.00 0.00 0.00 39 1019.2
20260503190016 17 336 3.2 16.1 0.00 0.00 0.00 38 1019.3
20260503185506 17 249 4.8 16.1 0.00 0.00 0.00 37 1019.2
20260503185008 17 261 8.0 16.1 0.00 0.00 0.00 38 1019.2
20260503184524 17 201 6.4 11.3 0.00 0.00 0.00 39 1019.3
20260503184009 17 215 8.0 12.9 0.00 0.00 0.00 39 1019.3
20260503183508 17 272 6.4 17.7 0.00 0.00 0.00 35 1019.4
20260503183034 17 274 9.7 17.7 0.00 0.00 0.00 36 1019.4
20260503182507 17 306 6.4 16.1 0.00 0.00 0.00 35 1019.4
20260503182006 16 254 6.4 12.9 0.00 0.00 0.00 38 1019.5
20260503181537 16 5 8.0 12.9 0.00 0.00 0.00 39 1019.5
20260503181007 16 315 6.4 16.1 0.00 0.00 0.00 41 1019.7
20260503180507 16 254 8.0 14.5 0.00 0.00 0.00 41 1019.7
20260503180015 16 352 4.8 11.3 0.00 0.00 0.00 42 1019.8
20260503175511 16 352 3.2 11.3 0.00 0.00 0.00 38 1019.8
20260503175002 16 10 3.2 9.7 0.00 0.00 0.00 38 1019.8
20260503174507 16 313 3.2 12.9 0.00 0.00 0.00 38 1019.8
20260503174005 16 300 8.0 12.9 0.00 0.00 0.00 39 1019.9
20260503173505 16 216 6.4 11.3 0.00 0.00 0.00 38 1020.0
20260503173009 15 279 3.2 11.3 0.00 0.00 0.00 45 1020.0
20260503172505 15 351 4.8 11.3 0.00 0.00 0.00 39 1020.1
20260503172006 15 224 3.2 11.3 0.00 0.00 0.00 36 1020.1
20260503171505 15 157 1.6 8.0 0.00 0.00 0.00 37 1020.2
20260503171003 15 156 1.6 8.0 0.00 0.00 0.00 38 1020.3
20260503170504 15 177 4.8 8.0 0.00 0.00 0.00 41 1020.3
20260503151005 12 320 3.2 9.7 0.00 0.00 0.00 53 1021.1
20260503150505 12 13 6.4 9.7 0.00 0.00 0.00 53 1021.1
20260503131007 8 346 1.6 4.8 0.00 0.00 0.00 78 1021.0
20260503130507 8 15 1.6 4.8 0.00 0.00 0.00 79 1021.0
20260503110510 2 55 1.6 6.4 0.00 0.00 0.00 94 1019.8
20260503090507 1 79 0.0 3.2 0.00 0.00 0.00 90 1018.6
20260503081507 2 121 0.0 3.2 0.00 0.00 0.00 90 1018.2
20260503081006 2 121 0.0 4.8 0.00 0.00 0.00 90 1018.2
20260503080504 2 80 1.6 4.8 0.00 0.00 0.00 91 1018.2
20260503072503 2 96 0.0 3.2 0.00 0.00 0.00 88 1018.0
20260503072009 2 96 1.6 3.2 0.00 0.00 0.00 88 1017.9
20260503071517 2 87 0.0 0.0 0.00 0.00 0.00 89 1017.8
20260503071005 2 87 0.0 0.0 0.00 0.00 0.00 89 1017.8
20260503070507 2 87 0.0 0.0 0.00 0.00 0.00 89 1017.7